Baker, MT

1:38 PM MDT on October 18, 2017 (GMT -0600)
Baker Municipal

Weather History for KBHK - August, 2013

Change the Weather History Date:

Saturday, August 31, 2013

  Actual Average Record
Temperature  
Mean Temperature 66 °F -  
Max Temperature 79 °F 79 °F 97 °F (2007)
Min Temperature 55 °F 56 °F 46 °F (2005)
Cooling Degree Days 2    
Growing Degree Days 16 (Base 50)    
Moisture  
Dew Point 44 °F    
Average Humidity 46    
Maximum Humidity 80    
Minimum Humidity 22    
Precipitation  
Precipitation 0.00 in - - ()
Sea Level Pressure  
Sea Level Pressure 29.96 in    
Wind  
Wind Speed 10 mph (NW)    
Max Wind Speed 29 mph    
Max Gust Speed 36 mph    
Visibility 10 miles    
Events      
Averages and records for this station are not official NWS values.
T = Trace of Precipitation, MM = Missing Value Source: NWS Daily Summary

Daily Weather History Graph

Daily Weather History Graph

Search for Another Location

Airport or City:

Trip Planner

Search our weather history database for the weather conditions in past years. The results will help you decide how hot, cold, wet, or windy it might be!

Date:

Astronomy

Aug. 31, 2013 Rise Set
Actual Time 6:16 AM MDT 7:37 PM MDT
Civil Twilight 5:45 AM MDT 8:08 PM MDT
Nautical Twilight 5:07 AM MDT 8:45 PM MDT
Astronomical Twilight 4:27 AM MDT 9:25 PM MDT
Moon 1:37 AM MDT (8/31) 4:45 PM MDT (8/31)
Length of Visible Light 14h 22m
Length of Day
13h 20m
Waning Crescent, 20% of the Moon is Illuminated
Aug 31
Waning Crescent
Sep 5
New
Sep 12
First Quarter
Sep 19
Full
Sep 26
Last Quarter

Hourly Weather History & Observations

Time (MDT) Temp. Dew Point Humidity Pressure Visibility Wind Dir Wind Speed Gust Speed Precip Events Conditions
12:51 AM 62.1 °F 53.1 °F 72% 29.83 in 10.0 mi NW 3.5 mph - N/A   Clear
1:51 AM 60.1 °F 54.0 °F 80% 29.85 in 10.0 mi Calm Calm - N/A   Clear
2:51 AM 64.0 °F 53.1 °F 67% 29.84 in 10.0 mi Calm Calm - N/A   Clear
3:51 AM 61.0 °F 52.0 °F 72% 29.86 in 10.0 mi WNW 3.5 mph - N/A   Clear
4:51 AM 60.1 °F 50.0 °F 69% 29.87 in 10.0 mi WNW 8.1 mph - N/A   Clear
5:51 AM 62.1 °F 50.0 °F 65% 29.88 in 10.0 mi WNW 9.2 mph - N/A   Clear
6:51 AM 64.0 °F 50.0 °F 60% 29.92 in 10.0 mi WNW 9.2 mph - N/A   Clear
7:51 AM 66.0 °F 48.0 °F 52% 29.94 in 10.0 mi NNW 15.0 mph - 0.00 in   Partly Cloudy
8:51 AM 70.0 °F 46.0 °F 42% 29.96 in 10.0 mi NNW 23.0 mph 31.1 mph N/A   Clear
9:51 AM 72.0 °F 45.0 °F 38% 29.99 in 10.0 mi NW 28.8 mph 35.7 mph N/A   Clear
10:51 AM 73.9 °F 43.0 °F 33% 29.99 in 10.0 mi NW 19.6 mph 28.8 mph N/A   Clear
11:51 AM 75.0 °F 41.0 °F 29% 30.00 in 10.0 mi NW 18.4 mph 26.5 mph N/A   Clear
12:51 PM 77.0 °F 39.9 °F 26% 29.99 in 10.0 mi NW 17.3 mph 27.6 mph N/A   Clear
1:51 PM 78.1 °F 41.0 °F 27% 30.00 in 10.0 mi NW 19.6 mph 26.5 mph N/A   Clear
2:51 PM 78.1 °F 37.9 °F 24% 29.99 in 10.0 mi NW 19.6 mph 33.4 mph N/A   Clear
3:51 PM 78.1 °F 36.0 °F 22% 29.99 in 10.0 mi NNW 19.6 mph 32.2 mph N/A   Clear
4:51 PM 77.0 °F 36.0 °F 23% 29.99 in 10.0 mi NW 19.6 mph 31.1 mph N/A   Clear
5:51 PM 75.9 °F 37.9 °F 25% 29.99 in 10.0 mi NNW 19.6 mph 27.6 mph N/A   Clear
6:51 PM 73.0 °F 36.0 °F 26% 30.00 in 10.0 mi NW 13.8 mph 21.9 mph N/A   Clear
7:51 PM 66.0 °F 37.9 °F 36% 30.03 in 10.0 mi WNW 8.1 mph - N/A   Clear
8:51 PM 60.1 °F 39.0 °F 46% 30.04 in 10.0 mi West 9.2 mph - N/A   Clear
9:51 PM 63.0 °F 43.0 °F 48% 30.04 in 10.0 mi NNW 9.2 mph - N/A   Clear
10:51 PM 55.9 °F 41.0 °F 57% 30.06 in 10.0 mi North 5.8 mph - N/A   Clear
11:51 PM 55.0 °F 45.0 °F 69% 30.06 in 10.0 mi SW 4.6 mph - N/A   Clear